Time,TemperatureF,DewpointF,PressureIn,WindDirection,WindDirectionDegrees,WindSpeedMPH,WindSpeedGustMPH,Humidity,HourlyPrecipIn,Conditions,Clouds,dailyrainin,SolarRadiationWatts/m^2,SoftwareType,DateUTC
2013-01-11 00:03:00,35.6,29.7,30.08,NW,314,2.2,2.2,79,0.00,,---,0.00,0.99,VWS V14.01,2013-01-11 08:03:00,
2013-01-11 00:08:00,35.1,28.8,30.08,NW,322,1.6,2.9,78,0.00,,---,0.00,0.76,VWS V14.01,2013-01-11 08:08:00,
2013-01-11 00:13:00,34.3,25.5,30.08,West,268,2.0,2.0,70,0.00,,---,0.00,0.00,VWS V14.01,2013-01-11 08:13:00,
2013-01-11 00:18:00,34.5,23.9,30.08,WSW,255,2.0,2.0,65,0.00,,---,0.00,1.45,VWS V14.01,2013-01-11 08:18:00,
2013-01-11 00:23:00,34.7,23.3,30.08,NNW,332,0.4,0.9,63,0.00,,---,0.00,0.46,VWS V14.01,2013-01-11 08:23:00,
2013-01-11 00:28:00,34.7,22.9,30.08,SSE,149,1.8,1.8,62,0.00,,---,0.00,0.92,VWS V14.01,2013-01-11 08:28:00,
2013-01-11 00:33:00,34.5,22.7,30.08,ENE,67,0.2,0.7,62,0.00,,---,0.00,3.13,VWS V14.01,2013-01-11 08:33:00,
2013-01-11 00:38:00,34.5,22.7,30.08,ESE,115,0.7,0.7,62,0.00,,---,0.00,0.00,VWS V14.01,2013-01-11 08:38:00,
2013-01-11 00:43:00,34.3,22.9,30.08,North,351,1.1,1.6,62,0.00,,---,0.00,3.82,VWS V14.01,2013-01-11 08:43:00,
2013-01-11 00:48:00,34.2,22.6,30.08,SE,132,2.0,2.0,62,0.00,,---,0.00,0.00,VWS V14.01,2013-01-11 08:48:00,
2013-01-11 00:53:00,34.3,22.8,30.08,East,94,0.9,1.1,62,0.00,,---,0.00,0.00,VWS V14.01,2013-01-11 08:53:00,
2013-01-11 00:58:00,34.3,22.6,30.08,SE,136,2.2,2.2,62,0.00,,---,0.00,0.00,VWS V14.01,2013-01-11 08:58:00,
2013-01-11 01:03:00,34.5,22.6,30.08,ESE,105,0.4,0.7,61,0.00,,---,0.00,2.14,VWS V14.01,2013-01-11 09:03:00,
2013-01-11 01:08:00,34.2,22.5,30.08,South,174,0.9,0.9,62,0.00,,---,0.00,0.00,VWS V14.01,2013-01-11 09:08:00,
2013-01-11 01:13:00,34.3,22.5,30.08,SW,219,2.0,2.0,61,0.00,,---,0.00,0.00,VWS V14.01,2013-01-11 09:13:00,
2013-01-11 01:18:00,34.2,22.3,30.09,South,178,0.4,0.4,61,0.00,,---,0.00,0.00,VWS V14.01,2013-01-11 09:18:00,
2013-01-11 01:23:00,34.2,22.3,30.09,WNW,297,1.6,1.6,62,0.00,,---,0.00,0.69,VWS V14.01,2013-01-11 09:23:00,
2013-01-11 01:28:00,34.2,22.0,30.09,NW,307,1.8,1.8,61,0.00,,---,0.00,0.00,VWS V14.01,2013-01-11 09:28:00,
2013-01-11 01:33:00,34.0,22.1,30.09,WNW,289,1.1,1.6,62,0.00,,---,0.00,0.76,VWS V14.01,2013-01-11 09:33:00,
2013-01-11 01:38:00,33.8,21.8,30.10,SSW,202,0.0,0.4,61,0.00,,---,0.00,0.00,VWS V14.01,2013-01-11 09:38:00,
2013-01-11 01:43:00,33.6,22.1,30.10,NNW,329,1.6,1.6,62,0.00,,---,0.00,0.00,VWS V14.01,2013-01-11 09:43:00,
2013-01-11 01:48:00,33.4,21.8,30.10,NE,40,1.1,1.1,62,0.00,,---,0.00,0.00,VWS V14.01,2013-01-11 09:48:00,
2013-01-11 01:53:00,33.3,22.0,30.10,SE,135,0.7,0.9,63,0.00,,---,0.00,0.00,VWS V14.01,2013-01-11 09:53:00,
2013-01-11 01:58:00,33.4,21.6,30.10,NW,308,2.0,2.0,62,0.00,,---,0.00,0.00,VWS V14.01,2013-01-11 09:58:00,
2013-01-11 02:03:00,33.4,22.0,30.10,WNW,303,2.0,2.0,62,0.00,,---,0.00,0.08,VWS V14.01,2013-01-11 10:03:00,
2013-01-11 02:08:00,33.4,22.0,30.10,NNW,329,1.3,1.3,62,0.00,,---,0.00,0.00,VWS V14.01,2013-01-11 10:08:00,
2013-01-11 02:13:00,33.3,22.0,30.10,SW,228,0.4,0.4,63,0.00,,---,0.00,1.60,VWS V14.01,2013-01-11 10:13:00,
2013-01-11 02:18:00,33.1,21.8,30.10,NE,44,0.7,0.7,63,0.00,,---,0.00,0.00,VWS V14.01,2013-01-11 10:18:00,
2013-01-11 02:22:00,33.1,21.9,30.10,SE,133,0.2,0.9,63,0.00,,---,0.00,0.00,VWS V14.01,2013-01-11 10:22:00,
2013-01-11 02:27:00,33.1,22.0,30.11,WSW,248,0.7,1.3,63,0.00,,---,0.00,2.06,VWS V14.01,2013-01-11 10:27:00,
2013-01-11 02:32:00,33.1,22.0,30.10,East,80,1.1,1.1,63,0.00,,---,0.00,0.00,VWS V14.01,2013-01-11 10:32:00,
2013-01-11 02:37:00,33.3,23.4,30.11,ESE,103,0.9,0.9,67,0.00,,---,0.00,0.00,VWS V14.01,2013-01-11 10:37:00,
2013-01-11 02:42:00,32.9,23.7,30.11,NE,40,1.1,1.1,69,0.00,,---,0.00,0.00,VWS V14.01,2013-01-11 10:42:00,
2013-01-11 02:47:00,32.7,24.0,30.11,West,270,0.4,0.4,70,0.00,,---,0.00,5.11,VWS V14.01,2013-01-11 10:47:00,
2013-01-11 02:52:00,32.7,23.9,30.11,West,281,2.7,2.7,70,0.00,,---,0.00,2.37,VWS V14.01,2013-01-11 10:52:00,
2013-01-11 02:57:00,32.5,23.0,30.11,WSW,257,3.8,3.8,68,0.00,,---,0.00,0.00,VWS V14.01,2013-01-11 10:57:00,
2013-01-11 03:02:00,32.9,22.8,30.11,West,262,0.7,1.1,66,0.00,,---,0.00,5.57,VWS V14.01,2013-01-11 11:02:00,
2013-01-11 03:07:00,32.9,22.7,30.11,WNW,296,1.8,1.8,66,0.00,,---,0.00,1.30,VWS V14.01,2013-01-11 11:07:00,
2013-01-11 03:12:00,32.9,22.7,30.11,WNW,302,1.3,1.3,66,0.00,,---,0.00,0.53,VWS V14.01,2013-01-11 11:12:00,
2013-01-11 03:17:00,32.7,22.6,30.11,West,269,1.1,1.1,66,0.00,,---,0.00,2.75,VWS V14.01,2013-01-11 11:17:00,
2013-01-11 03:22:00,32.7,22.6,30.11,NW,320,0.7,0.7,66,0.00,,---,0.00,0.00,VWS V14.01,2013-01-11 11:22:00,
2013-01-11 03:27:00,32.7,22.1,30.11,East,82,1.1,1.1,64,0.00,,---,0.00,0.00,VWS V14.01,2013-01-11 11:27:00,
2013-01-11 03:32:00,32.7,22.0,30.11,SSW,205,0.4,0.4,64,0.00,,---,0.00,0.00,VWS V14.01,2013-01-11 11:32:00,
2013-01-11 03:37:00,32.9,22.1,30.11,SE,129,0.7,0.7,64,0.00,,---,0.00,0.00,VWS V14.01,2013-01-11 11:37:00,
2013-01-11 03:42:00,32.7,22.0,30.11,SW,228,0.7,0.7,64,0.00,,---,0.00,0.00,VWS V14.01,2013-01-11 11:42:00,
2013-01-11 03:47:00,32.7,21.7,30.11,SE,131,1.3,1.8,64,0.00,,---,0.00,0.23,VWS V14.01,2013-01-11 11:47:00,
2013-01-11 03:52:00,32.9,20.9,30.11,NNE,21,0.4,0.4,61,0.00,,---,0.00,0.00,VWS V14.01,2013-01-11 11:52:00,
2013-01-11 03:57:00,32.7,22.7,30.11,ENE,69,0.7,0.9,66,0.00,,---,0.00,7.25,VWS V14.01,2013-01-11 11:57:00,
2013-01-11 04:02:00,32.2,22.6,30.12,NNW,339,0.9,0.9,67,0.00,,---,0.00,0.00,VWS V14.01,2013-01-11 12:02:00,
2013-01-11 04:07:00,32.2,22.3,30.12,NE,55,0.7,1.1,66,0.00,,---,0.00,0.00,VWS V14.01,2013-01-11 12:07:00,
2013-01-11 04:12:00,32.0,22.2,30.12,NW,311,1.3,1.8,67,0.00,,---,0.00,2.14,VWS V14.01,2013-01-11 12:12:00,
2013-01-11 04:17:00,32.0,21.4,30.12,West,269,3.1,3.1,64,0.00,,---,0.00,0.00,VWS V14.01,2013-01-11 12:17:00,
2013-01-11 04:22:00,32.2,21.5,30.12,WNW,295,2.0,2.0,64,0.00,,---,0.00,0.00,VWS V14.01,2013-01-11 12:22:00,
2013-01-11 04:27:00,32.2,21.9,30.12,West,274,2.2,2.2,65,0.00,,---,0.00,5.11,VWS V14.01,2013-01-11 12:27:00,
2013-01-11 04:32:00,32.2,22.0,30.12,NW,318,1.6,2.5,66,0.00,,---,0.00,0.00,VWS V14.01,2013-01-11 12:32:00,
2013-01-11 04:37:00,32.0,21.8,30.12,NW,306,1.1,1.3,66,0.00,,---,0.00,0.00,VWS V14.01,2013-01-11 12:37:00,
2013-01-11 04:42:00,32.0,21.8,30.13,NNW,333,1.3,1.3,66,0.00,,---,0.00,0.00,VWS V14.01,2013-01-11 12:42:00,
2013-01-11 04:47:00,32.0,21.5,30.13,North,0,0.7,1.3,65,0.00,,---,0.00,0.00,VWS V14.01,2013-01-11 12:47:00,
2013-01-11 04:52:00,32.0,21.4,30.13,NNW,336,1.1,1.1,65,0.00,,---,0.00,0.46,VWS V14.01,2013-01-11 12:52:00,
2013-01-11 04:57:00,31.8,21.0,30.13,East,87,0.7,0.7,64,0.00,,---,0.00,0.00,VWS V14.01,2013-01-11 12:57:00,
2013-01-11 05:02:00,31.8,21.4,30.13,East,93,0.7,0.9,65,0.00,,---,0.00,6.56,VWS V14.01,2013-01-11 13:02:00,
2013-01-11 05:07:00,32.0,21.7,30.13,NW,326,0.9,0.9,65,0.00,,---,0.00,0.00,VWS V14.01,2013-01-11 13:07:00,
2013-01-11 05:12:00,31.8,21.3,30.13,West,271,0.2,0.2,65,0.00,,---,0.00,4.20,VWS V14.01,2013-01-11 13:12:00,
2013-01-11 05:17:00,31.8,20.9,30.13,NNE,31,1.1,1.1,64,0.00,,---,0.00,0.00,VWS V14.01,2013-01-11 13:17:00,
2013-01-11 05:22:00,31.8,21.0,30.13,South,181,0.7,0.7,64,0.00,,---,0.00,0.00,VWS V14.01,2013-01-11 13:22:00,
2013-01-11 05:27:00,31.8,21.0,30.13,WSW,246,1.3,1.3,64,0.00,,---,0.00,0.00,VWS V14.01,2013-01-11 13:27:00,
2013-01-11 05:32:00,31.8,20.3,30.14,NW,307,1.8,1.8,62,0.00,,---,0.00,2.52,VWS V14.01,2013-01-11 13:32:00,
2013-01-11 05:37:00,32.0,20.0,30.14,NW,307,0.2,0.7,61,0.00,,---,0.00,0.00,VWS V14.01,2013-01-11 13:37:00,
2013-01-11 05:42:00,32.0,20.1,30.14,WNW,284,1.1,1.1,61,0.00,,---,0.00,0.00,VWS V14.01,2013-01-11 13:42:00,
2013-01-11 05:47:00,31.8,19.9,30.14,WNW,282,1.1,1.1,61,0.00,,---,0.00,0.38,VWS V14.01,2013-01-11 13:47:00,
2013-01-11 05:52:00,32.0,19.4,30.14,WNW,285,2.5,2.5,59,0.00,,---,0.00,0.00,VWS V14.01,2013-01-11 13:52:00,
2013-01-11 05:57:00,32.0,18.9,30.14,West,278,2.9,3.1,58,0.00,,---,0.00,0.00,VWS V14.01,2013-01-11 13:57:00,
2013-01-11 06:02:00,32.0,18.8,30.14,WNW,293,3.8,3.8,58,0.00,,---,0.00,0.00,VWS V14.01,2013-01-11 14:02:00,
2013-01-11 06:07:00,32.0,19.1,30.15,NW,312,0.9,1.6,59,0.00,,---,0.00,0.00,VWS V14.01,2013-01-11 14:07:00,
2013-01-11 06:12:00,32.0,19.3,30.15,WNW,299,2.5,2.5,59,0.00,,---,0.00,0.61,VWS V14.01,2013-01-11 14:12:00,
2013-01-11 06:17:00,32.0,19.3,30.15,WNW,287,2.9,3.1,59,0.00,,---,0.00,0.61,VWS V14.01,2013-01-11 14:17:00,
2013-01-11 06:22:00,31.8,19.7,30.15,WNW,291,3.8,3.8,60,0.00,,---,0.00,4.20,VWS V14.01,2013-01-11 14:22:00,
2013-01-11 06:27:00,31.6,20.5,30.16,WSW,242,1.3,3.6,63,0.00,,---,0.00,0.00,VWS V14.01,2013-01-11 14:27:00,
2013-01-11 06:32:00,31.6,21.0,30.16,WNW,292,4.0,4.0,64,0.00,,---,0.00,0.00,VWS V14.01,2013-01-11 14:32:00,
2013-01-11 06:37:00,31.8,21.3,30.16,WNW,301,2.7,2.7,65,0.00,,---,0.00,0.00,VWS V14.01,2013-01-11 14:37:00,
2013-01-11 06:42:00,31.6,21.2,30.16,WNW,302,3.4,3.4,65,0.00,,---,0.00,0.00,VWS V14.01,2013-01-11 14:42:00,
2013-01-11 06:47:00,31.6,21.2,30.16,WNW,301,1.6,1.6,65,0.00,,---,0.00,0.00,VWS V14.01,2013-01-11 14:47:00,
2013-01-11 06:52:00,31.6,21.2,30.17,WNW,286,2.0,3.8,65,0.00,,---,0.00,0.00,VWS V14.01,2013-01-11 14:52:00,
2013-01-11 06:57:00,31.5,21.2,30.17,WNW,302,3.8,3.8,66,0.00,,---,0.00,1.98,VWS V14.01,2013-01-11 14:57:00,
2013-01-11 07:02:00,31.5,21.8,30.17,WNW,290,5.6,5.6,67,0.00,,---,0.00,1.53,VWS V14.01,2013-01-11 15:02:00,
2013-01-11 07:07:00,31.5,22.2,30.18,WNW,295,4.0,5.1,68,0.00,,---,0.00,0.00,VWS V14.01,2013-01-11 15:07:00,
2013-01-11 07:12:00,31.5,22.8,30.18,WNW,293,4.7,4.7,70,0.00,,---,0.00,1.14,VWS V14.01,2013-01-11 15:12:00,
2013-01-11 07:17:00,31.5,23.2,30.18,WNW,298,4.3,4.3,71,0.00,,---,0.00,0.00,VWS V14.01,2013-01-11 15:17:00,
2013-01-11 07:22:00,31.5,23.5,30.18,WNW,294,6.3,6.3,72,0.00,,---,0.00,0.00,VWS V14.01,2013-01-11 15:22:00,
2013-01-11 07:27:00,31.3,23.8,30.19,WNW,284,3.8,3.8,73,0.00,,---,0.00,1.30,VWS V14.01,2013-01-11 15:27:00,
2013-01-11 07:32:00,31.1,24.0,30.19,WNW,283,3.4,3.4,75,0.00,,---,0.00,0.00,VWS V14.01,2013-01-11 15:32:00,
2013-01-11 07:37:00,30.9,24.2,30.20,West,272,3.4,4.7,76,0.00,,---,0.00,0.00,VWS V14.01,2013-01-11 15:37:00,
2013-01-11 07:42:00,30.7,24.4,30.20,West,279,4.3,4.3,77,0.00,,---,0.00,0.38,VWS V14.01,2013-01-11 15:42:00,
2013-01-11 07:47:00,30.7,24.7,30.20,WNW,290,6.0,6.0,78,0.00,,---,0.00,0.53,VWS V14.01,2013-01-11 15:47:00,
2013-01-11 07:52:00,30.6,24.6,30.20,WNW,283,4.0,4.0,78,0.00,,---,0.00,1.53,VWS V14.01,2013-01-11 15:52:00,
2013-01-11 07:57:00,30.6,24.7,30.21,WNW,297,5.1,5.1,79,0.00,,---,0.00,6.94,VWS V14.01,2013-01-11 15:57:00,
2013-01-11 08:02:00,30.6,24.8,30.21,WNW,284,4.0,4.3,79,0.00,,---,0.00,5.11,VWS V14.01,2013-01-11 16:02:00,
2013-01-11 08:07:00,30.6,24.9,30.21,West,267,5.6,5.6,79,0.00,,---,0.00,2.82,VWS V14.01,2013-01-11 16:07:00,
2013-01-11 08:12:00,30.6,24.9,30.21,WNW,290,5.1,6.0,79,0.00,,---,0.00,8.09,VWS V14.01,2013-01-11 16:12:00,
2013-01-11 08:17:00,30.4,24.8,30.21,West,277,4.7,4.7,79,0.00,,---,0.00,12.29,VWS V14.01,2013-01-11 16:17:00,
2013-01-11 08:22:00,30.6,25.1,30.21,WNW,299,5.4,5.4,80,0.00,,---,0.00,10.07,VWS V14.01,2013-01-11 16:22:00,
2013-01-11 08:27:00,30.6,25.4,30.21,WNW,290,3.8,5.4,81,0.00,,---,0.00,10.99,VWS V14.01,2013-01-11 16:27:00,
2013-01-11 08:32:00,30.7,25.6,30.22,WNW,285,2.9,2.9,81,0.00,,---,0.00,13.20,VWS V14.01,2013-01-11 16:32:00,
2013-01-11 08:37:00,30.9,25.8,30.22,WNW,288,3.1,3.1,81,0.00,,---,0.00,20.76,VWS V14.01,2013-01-11 16:37:00,
2013-01-11 08:42:00,31.1,25.9,30.22,WNW,297,2.9,2.9,81,0.00,,---,0.00,27.32,VWS V14.01,2013-01-11 16:42:00,
2013-01-11 08:47:00,31.1,24.9,30.22,WNW,299,2.7,4.5,78,0.00,,---,0.00,27.93,VWS V14.01,2013-01-11 16:47:00,
2013-01-11 08:52:00,31.6,24.5,30.22,WSW,251,2.5,2.5,74,0.00,,---,0.00,35.41,VWS V14.01,2013-01-11 16:52:00,
2013-01-11 08:57:00,32.0,24.0,30.22,West,280,3.4,3.4,72,0.00,,---,0.00,36.86,VWS V14.01,2013-01-11 16:57:00,
2013-01-11 09:02:00,32.2,24.2,30.23,NW,310,2.0,2.9,72,0.00,,---,0.00,38.08,VWS V14.01,2013-01-11 17:02:00,
2013-01-11 09:07:00,32.2,24.0,30.23,West,271,2.9,2.9,71,0.00,,---,0.00,41.59,VWS V14.01,2013-01-11 17:07:00,
2013-01-11 09:12:00,32.2,24.0,30.23,NW,317,4.5,4.5,71,0.00,,---,0.00,40.83,VWS V14.01,2013-01-11 17:12:00,
2013-01-11 09:17:00,32.2,24.0,30.23,NW,320,3.8,4.3,72,0.00,,---,0.00,54.03,VWS V14.01,2013-01-11 17:17:00,
2013-01-11 09:22:00,32.2,23.7,30.24,West,279,3.8,3.8,70,0.00,,---,0.00,55.17,VWS V14.01,2013-01-11 17:22:00,
2013-01-11 09:27:00,32.7,24.3,30.24,NW,325,4.5,4.5,71,0.00,,---,0.00,53.95,VWS V14.01,2013-01-11 17:27:00,
2013-01-11 09:32:00,32.9,24.8,30.24,WNW,289,3.1,3.1,72,0.00,,---,0.00,59.98,VWS V14.01,2013-01-11 17:32:00,
2013-01-11 09:37:00,32.9,24.5,30.24,NNW,333,2.7,3.6,71,0.00,,---,0.00,67.23,VWS V14.01,2013-01-11 17:37:00,
2013-01-11 09:42:00,32.7,24.2,30.24,WNW,302,4.7,4.7,71,0.00,,---,0.00,73.57,VWS V14.01,2013-01-11 17:42:00,
2013-01-11 09:47:00,32.9,24.7,30.24,NW,307,3.6,3.6,71,0.00,,---,0.00,65.86,VWS V14.01,2013-01-11 17:47:00,
2013-01-11 09:52:00,32.0,24.0,30.25,NW,305,4.3,4.3,72,0.00,,---,0.00,77.23,VWS V14.01,2013-01-11 17:52:00,
2013-01-11 09:57:00,32.0,24.2,30.24,WNW,302,4.9,5.8,72,0.00,,---,0.00,82.57,VWS V14.01,2013-01-11 17:57:00,
2013-01-11 10:02:00,32.0,24.2,30.25,NW,305,7.6,7.6,73,0.00,,---,0.00,85.32,VWS V14.01,2013-01-11 18:02:00,
2013-01-11 10:07:00,32.0,24.5,30.25,NW,306,5.4,5.4,73,0.00,,---,0.00,92.72,VWS V14.01,2013-01-11 18:07:00,
2013-01-11 10:12:00,32.0,24.8,30.25,NW,315,4.7,5.4,74,0.00,,---,0.00,97.22,VWS V14.01,2013-01-11 18:12:00,
2013-01-11 10:17:00,31.8,24.7,30.25,NW,320,5.6,5.6,75,0.00,,---,0.00,100.27,VWS V14.01,2013-01-11 18:17:00,
2013-01-11 10:22:00,32.0,25.2,30.25,WNW,294,3.8,6.3,76,0.00,,---,0.00,107.83,VWS V14.01,2013-01-11 18:22:00,
2013-01-11 10:27:00,32.0,25.1,30.25,NW,318,5.8,5.8,75,0.00,,---,0.00,115.16,VWS V14.01,2013-01-11 18:27:00,
2013-01-11 10:32:00,32.0,24.7,30.25,WNW,283,5.6,5.6,74,0.00,,---,0.00,109.43,VWS V14.01,2013-01-11 18:32:00,
2013-01-11 10:37:00,32.5,24.8,30.26,West,263,4.3,4.5,73,0.00,,---,0.00,116.45,VWS V14.01,2013-01-11 18:37:00,
2013-01-11 10:42:00,32.4,23.9,30.25,WSW,258,6.0,6.5,70,0.00,,---,0.00,122.94,VWS V14.01,2013-01-11 18:42:00,
2013-01-11 10:47:00,32.5,24.0,30.25,WNW,288,8.7,8.7,70,0.00,,---,0.00,127.44,VWS V14.01,2013-01-11 18:47:00,
2013-01-11 10:52:00,32.4,23.8,30.25,WNW,301,6.7,8.3,70,0.00,,---,0.00,123.55,VWS V14.01,2013-01-11 18:52:00,
2013-01-11 10:57:00,33.3,24.6,30.26,West,276,5.6,6.7,70,0.00,,---,0.00,131.33,VWS V14.01,2013-01-11 18:57:00,
2013-01-11 11:02:00,33.4,25.3,30.26,NNW,348,4.0,4.0,72,0.00,,---,0.00,128.97,VWS V14.01,2013-01-11 19:02:00,
2013-01-11 11:07:00,33.8,25.7,30.26,NNW,327,1.8,2.7,72,0.00,,---,0.00,134.23,VWS V14.01,2013-01-11 19:07:00,
2013-01-11 11:12:00,32.9,25.0,30.26,WNW,287,2.5,2.5,72,0.00,,---,0.00,139.19,VWS V14.01,2013-01-11 19:12:00,
2013-01-11 11:17:00,33.4,25.8,30.26,WNW,288,3.1,3.1,73,0.00,,---,0.00,137.06,VWS V14.01,2013-01-11 19:17:00,
2013-01-11 11:22:00,33.4,25.7,30.26,WNW,300,4.3,4.9,73,0.00,,---,0.00,150.18,VWS V14.01,2013-01-11 19:22:00,
2013-01-11 11:27:00,33.6,25.7,30.26,WNW,296,4.7,4.7,72,0.00,,---,0.00,144.69,VWS V14.01,2013-01-11 19:27:00,
2013-01-11 11:32:00,33.8,26.1,30.26,NW,321,7.2,7.2,73,0.00,,---,0.00,146.06,VWS V14.01,2013-01-11 19:32:00,
2013-01-11 11:37:00,33.1,25.5,30.26,WNW,285,5.8,6.3,73,0.00,,---,0.00,146.90,VWS V14.01,2013-01-11 19:37:00,
2013-01-11 11:42:00,32.5,25.5,30.26,WNW,296,8.3,8.3,75,0.00,,---,0.00,156.21,VWS V14.01,2013-01-11 19:42:00,
2013-01-11 11:47:00,32.5,26.0,30.26,NW,318,7.4,7.4,76,0.00,,---,0.00,158.20,VWS V14.01,2013-01-11 19:47:00,
2013-01-11 11:52:00,32.7,26.3,30.26,WNW,292,3.4,3.4,77,0.00,,---,0.00,157.89,VWS V14.01,2013-01-11 19:52:00,
2013-01-11 11:57:00,33.1,26.3,30.26,WNW,294,6.5,6.5,76,0.00,,---,0.00,158.04,VWS V14.01,2013-01-11 19:57:00,
2013-01-11 12:02:00,33.1,26.6,30.25,NW,323,3.1,3.1,77,0.00,,---,0.00,156.21,VWS V14.01,2013-01-11 20:02:00,
2013-01-11 12:07:00,33.6,26.6,30.26,NW,321,2.9,4.3,75,0.00,,---,0.00,166.13,VWS V14.01,2013-01-11 20:07:00,
2013-01-11 12:12:00,34.7,27.0,30.26,NW,313,3.1,3.1,73,0.00,,---,0.00,158.50,VWS V14.01,2013-01-11 20:12:00,
2013-01-11 12:17:00,34.2,26.4,30.25,NW,310,5.8,5.8,73,0.00,,---,0.00,164.76,VWS V14.01,2013-01-11 20:17:00,
2013-01-11 12:22:00,34.2,26.7,30.25,NW,316,5.4,5.4,74,0.00,,---,0.00,164.53,VWS V14.01,2013-01-11 20:22:00,
2013-01-11 12:27:00,34.2,26.6,30.25,North,351,6.0,6.0,74,0.00,,---,0.00,165.90,VWS V14.01,2013-01-11 20:27:00,
2013-01-11 12:32:00,34.3,26.8,30.25,NW,320,4.9,4.9,74,0.00,,---,0.00,165.52,VWS V14.01,2013-01-11 20:32:00,
2013-01-11 12:37:00,35.4,27.4,30.26,NW,320,4.5,4.7,72,0.00,,---,0.00,163.23,VWS V14.01,2013-01-11 20:37:00,
2013-01-11 12:42:00,35.6,26.7,30.26,WNW,302,6.7,6.7,70,0.00,,---,0.00,160.03,VWS V14.01,2013-01-11 20:42:00,
2013-01-11 12:47:00,35.2,26.5,30.26,NNW,327,4.7,4.7,70,0.00,,---,0.00,168.12,VWS V14.01,2013-01-11 20:47:00,
2013-01-11 12:52:00,35.6,26.6,30.26,NW,321,5.6,5.6,69,0.00,,---,0.00,161.94,VWS V14.01,2013-01-11 20:52:00,
2013-01-11 12:57:00,35.6,26.7,30.26,NW,324,3.1,4.3,70,0.00,,---,0.00,157.13,VWS V14.01,2013-01-11 20:57:00,
2013-01-11 13:02:00,35.1,25.4,30.26,NW,310,7.6,8.7,67,0.00,,---,0.00,154.91,VWS V14.01,2013-01-11 21:02:00,
2013-01-11 13:07:00,34.7,25.2,30.26,NW,305,5.4,5.4,68,0.00,,---,0.00,151.63,VWS V14.01,2013-01-11 21:07:00,
2013-01-11 13:12:00,35.1,25.4,30.26,NW,312,4.0,5.4,68,0.00,,---,0.00,161.02,VWS V14.01,2013-01-11 21:12:00,
2013-01-11 13:17:00,35.1,25.3,30.26,NW,311,9.6,9.6,67,0.00,,---,0.00,154.30,VWS V14.01,2013-01-11 21:17:00,
2013-01-11 13:22:00,35.2,25.8,30.26,NNW,328,5.1,6.0,68,0.00,,---,0.00,153.24,VWS V14.01,2013-01-11 21:22:00,
2013-01-11 13:27:00,35.1,25.4,30.26,NNW,327,4.9,4.9,68,0.00,,---,0.00,155.98,VWS V14.01,2013-01-11 21:27:00,
2013-01-11 13:32:00,35.2,24.7,30.26,NW,322,2.9,7.8,65,0.00,,---,0.00,149.65,VWS V14.01,2013-01-11 21:32:00,
2013-01-11 13:37:00,35.2,24.9,30.26,NW,314,6.0,6.9,66,0.00,,---,0.00,142.48,VWS V14.01,2013-01-11 21:37:00,
2013-01-11 13:42:00,35.6,24.9,30.27,NW,315,3.6,6.7,65,0.00,,---,0.00,145.99,VWS V14.01,2013-01-11 21:42:00,
2013-01-11 13:47:00,35.2,24.7,30.27,NW,312,3.8,6.9,65,0.00,,---,0.00,132.71,VWS V14.01,2013-01-11 21:47:00,
2013-01-11 13:52:00,35.1,24.6,30.27,NW,309,6.9,8.1,65,0.00,,---,0.00,143.70,VWS V14.01,2013-01-11 21:52:00,
2013-01-11 13:57:00,35.6,24.7,30.27,NW,315,4.5,6.5,64,0.00,,---,0.00,137.74,VWS V14.01,2013-01-11 21:57:00,
2013-01-11 14:02:00,35.8,25.0,30.27,NNW,344,2.2,4.0,64,0.00,,---,0.00,136.22,VWS V14.01,2013-01-11 22:02:00,
2013-01-11 14:07:00,35.6,24.9,30.27,WNW,282,5.6,5.6,65,0.00,,---,0.00,126.68,VWS V14.01,2013-01-11 22:07:00,
2013-01-11 14:12:00,35.4,25.1,30.27,NNW,341,3.1,4.7,66,0.00,,---,0.00,120.12,VWS V14.01,2013-01-11 22:12:00,
2013-01-11 14:17:00,35.8,24.7,30.27,NNW,336,6.3,8.1,64,0.00,,---,0.00,124.31,VWS V14.01,2013-01-11 22:17:00,
2013-01-11 14:22:00,35.8,24.1,30.27,WNW,287,7.8,7.8,62,0.00,,---,0.00,113.48,VWS V14.01,2013-01-11 22:22:00,
2013-01-11 14:26:00,35.6,23.6,30.27,NW,316,4.5,4.5,61,0.00,,---,0.00,112.94,VWS V14.01,2013-01-11 22:26:00,
2013-01-11 14:31:00,35.6,23.0,30.27,NW,318,5.6,8.5,60,0.00,,---,0.00,117.98,VWS V14.01,2013-01-11 22:31:00,
2013-01-11 14:37:00,35.6,22.0,30.27,WNW,303,4.9,6.7,57,0.00,,---,0.00,105.16,VWS V14.01,2013-01-11 22:37:00,
2013-01-11 14:42:00,35.8,21.8,30.27,NW,315,5.1,6.3,56,0.00,,---,0.00,100.96,VWS V14.01,2013-01-11 22:42:00,
2013-01-11 14:47:00,36.0,22.4,30.27,NNW,333,2.5,3.4,58,0.00,,---,0.00,99.28,VWS V14.01,2013-01-11 22:47:00,
2013-01-11 14:52:00,36.0,21.3,30.27,WNW,302,5.8,5.8,55,0.00,,---,0.00,92.03,VWS V14.01,2013-01-11 22:52:00,
2013-01-11 14:57:00,35.6,21.8,30.27,NW,326,5.6,5.6,57,0.00,,---,0.00,83.26,VWS V14.01,2013-01-11 22:57:00,
2013-01-11 15:01:00,35.8,21.5,30.27,NW,308,6.7,6.7,56,0.00,,---,0.00,77.15,VWS V14.01,2013-01-11 23:01:00,
2013-01-11 15:06:00,36.0,21.5,30.27,NNW,331,4.9,4.9,55,0.00,,---,0.00,79.06,VWS V14.01,2013-01-11 23:06:00,
2013-01-11 15:11:00,36.0,20.9,30.27,NW,325,4.7,4.7,54,0.00,,---,0.00,73.79,VWS V14.01,2013-01-11 23:11:00,
2013-01-11 15:16:00,36.1,22.4,30.28,NNW,330,5.6,5.6,57,0.00,,---,0.00,68.53,VWS V14.01,2013-01-11 23:16:00,
2013-01-11 15:21:00,36.3,22.2,30.28,West,276,5.8,5.8,56,0.00,,---,0.00,67.08,VWS V14.01,2013-01-11 23:21:00,
2013-01-11 15:26:00,36.0,22.3,30.28,NW,314,4.7,4.7,57,0.00,,---,0.00,52.88,VWS V14.01,2013-01-11 23:26:00,
2013-01-11 15:31:00,36.0,22.3,30.28,WNW,290,4.9,4.9,57,0.00,,---,0.00,53.65,VWS V14.01,2013-01-11 23:31:00,
2013-01-11 15:36:00,35.8,21.9,30.28,WNW,287,3.4,3.8,57,0.00,,---,0.00,50.67,VWS V14.01,2013-01-11 23:36:00,
2013-01-11 15:41:00,36.1,21.4,30.28,NW,311,5.6,5.6,55,0.00,,---,0.00,30.37,VWS V14.01,2013-01-11 23:41:00,
2013-01-11 15:46:00,35.8,21.7,30.28,WNW,282,3.1,3.1,56,0.00,,---,0.00,18.39,VWS V14.01,2013-01-11 23:46:00,
2013-01-11 15:51:00,35.6,21.8,30.28,WNW,302,3.4,4.5,57,0.00,,---,0.00,33.20,VWS V14.01,2013-01-11 23:51:00,
2013-01-11 15:56:00,35.6,21.8,30.28,WNW,293,2.9,2.9,57,0.00,,---,0.00,24.73,VWS V14.01,2013-01-11 23:56:00,
2013-01-11 16:01:00,35.4,21.3,30.28,WNW,285,4.7,4.7,56,0.00,,---,0.00,17.55,VWS V14.01,2013-01-12 00:01:00,
2013-01-11 16:06:00,35.2,21.3,30.28,WNW,301,2.2,3.4,56,0.00,,---,0.00,17.40,VWS V14.01,2013-01-12 00:06:00,
2013-01-11 16:11:00,35.2,21.9,30.28,WNW,288,1.8,3.4,58,0.00,,---,0.00,0.00,VWS V14.01,2013-01-12 00:11:00,
2013-01-11 16:16:00,35.1,22.1,30.28,West,273,3.1,3.1,59,0.00,,---,0.00,14.96,VWS V14.01,2013-01-12 00:16:00,
2013-01-11 16:21:00,34.9,22.3,30.28,WNW,299,2.9,2.9,60,0.00,,---,0.00,9.23,VWS V14.01,2013-01-12 00:21:00,
2013-01-11 16:26:00,34.7,22.2,30.28,WNW,290,2.5,2.5,60,0.00,,---,0.00,2.90,VWS V14.01,2013-01-12 00:26:00,
2013-01-11 16:31:00,34.7,22.2,30.28,West,280,2.0,2.0,60,0.00,,---,0.00,1.53,VWS V14.01,2013-01-12 00:31:00,
2013-01-11 16:36:00,34.5,21.8,30.28,WNW,291,3.4,3.4,59,0.00,,---,0.00,6.64,VWS V14.01,2013-01-12 00:36:00,
2013-01-11 16:41:00,34.3,21.6,30.28,West,275,2.9,3.6,59,0.00,,---,0.00,0.00,VWS V14.01,2013-01-12 00:41:00,
2013-01-11 16:46:00,34.2,21.6,30.28,WNW,289,2.7,2.7,60,0.00,,---,0.00,0.00,VWS V14.01,2013-01-12 00:46:00,
2013-01-11 16:51:00,34.2,21.9,30.28,WNW,286,3.6,4.0,60,0.00,,---,0.00,2.44,VWS V14.01,2013-01-12 00:51:00,
2013-01-11 16:56:00,34.0,21.9,30.28,West,273,2.5,2.5,61,0.00,,---,0.00,0.00,VWS V14.01,2013-01-12 00:56:00,
2013-01-11 17:01:00,33.8,22.1,30.28,WNW,292,5.4,5.4,62,0.00,,---,0.00,0.00,VWS V14.01,2013-01-12 01:01:00,
2013-01-11 17:06:00,33.8,22.4,30.28,West,281,2.9,4.3,63,0.00,,---,0.00,0.00,VWS V14.01,2013-01-12 01:06:00,
2013-01-11 17:11:00,33.6,22.4,30.28,West,274,4.3,4.3,63,0.00,,---,0.00,0.00,VWS V14.01,2013-01-12 01:11:00,
2013-01-11 17:16:00,33.6,22.2,30.29,West,269,4.5,4.5,62,0.00,,---,0.00,0.00,VWS V14.01,2013-01-12 01:16:00,
2013-01-11 17:21:00,33.8,22.6,30.29,WSW,258,4.0,4.0,63,0.00,,---,0.00,0.00,VWS V14.01,2013-01-12 01:21:00,
2013-01-11 17:26:00,33.6,22.3,30.29,West,277,4.5,4.5,63,0.00,,---,0.00,1.14,VWS V14.01,2013-01-12 01:26:00,
2013-01-11 17:31:00,33.6,22.5,30.29,West,273,3.6,4.3,63,0.00,,---,0.00,0.00,VWS V14.01,2013-01-12 01:31:00,
2013-01-11 17:36:00,33.6,22.8,30.29,West,274,4.0,4.0,64,0.00,,---,0.00,0.00,VWS V14.01,2013-01-12 01:36:00,
2013-01-11 17:41:00,33.6,23.2,30.29,West,271,3.8,3.8,65,0.00,,---,0.00,0.15,VWS V14.01,2013-01-12 01:41:00,
2013-01-11 17:46:00,33.6,23.3,30.29,West,266,4.9,4.9,66,0.00,,---,0.00,0.00,VWS V14.01,2013-01-12 01:46:00,
2013-01-11 17:51:00,33.8,23.8,30.29,West,259,2.9,4.3,66,0.00,,---,0.00,0.15,VWS V14.01,2013-01-12 01:51:00,
2013-01-11 17:56:00,33.8,24.0,30.29,West,260,3.6,4.3,67,0.00,,---,0.00,0.15,VWS V14.01,2013-01-12 01:56:00,
2013-01-11 18:01:00,33.8,24.1,30.29,West,278,2.5,4.5,67,0.00,,---,0.00,0.00,VWS V14.01,2013-01-12 02:01:00,
2013-01-11 18:06:00,33.8,24.0,30.29,West,280,2.5,2.5,67,0.00,,---,0.00,0.00,VWS V14.01,2013-01-12 02:06:00,
2013-01-11 18:11:00,33.6,23.3,30.29,West,276,3.4,3.4,65,0.00,,---,0.00,3.82,VWS V14.01,2013-01-12 02:11:00,
2013-01-11 18:16:00,33.8,23.4,30.29,West,273,2.7,2.9,65,0.00,,---,0.00,0.00,VWS V14.01,2013-01-12 02:16:00,
2013-01-11 18:21:00,33.8,23.1,30.29,West,278,3.1,3.1,65,0.00,,---,0.00,0.00,VWS V14.01,2013-01-12 02:21:00,
2013-01-11 18:26:00,33.8,23.4,30.29,West,280,3.1,3.1,65,0.00,,---,0.00,0.00,VWS V14.01,2013-01-12 02:26:00,
2013-01-11 18:31:00,33.8,24.0,30.29,West,278,4.0,4.0,67,0.00,,---,0.00,2.06,VWS V14.01,2013-01-12 02:31:00,
2013-01-11 18:36:00,33.6,23.9,30.29,WNW,288,3.1,3.1,67,0.00,,---,0.00,0.00,VWS V14.01,2013-01-12 02:36:00,
2013-01-11 18:41:00,33.6,24.1,30.28,WNW,300,4.5,5.4,68,0.00,,---,0.00,0.00,VWS V14.01,2013-01-12 02:41:00,
2013-01-11 18:46:00,33.6,24.5,30.28,West,279,3.4,4.5,69,0.00,,---,0.00,0.00,VWS V14.01,2013-01-12 02:46:00,
2013-01-11 18:51:00,33.4,24.7,30.28,WNW,300,4.5,5.1,70,0.00,,---,0.00,7.40,VWS V14.01,2013-01-12 02:51:00,
2013-01-11 18:56:00,33.4,25.1,30.28,WNW,290,4.0,4.0,71,0.00,,---,0.00,0.00,VWS V14.01,2013-01-12 02:56:00,
2013-01-11 19:01:00,33.4,25.7,30.28,West,274,3.1,3.4,73,0.00,,---,0.00,0.00,VWS V14.01,2013-01-12 03:01:00,
2013-01-11 19:06:00,33.4,26.3,30.28,WNW,283,2.7,2.9,75,0.00,,---,0.00,2.82,VWS V14.01,2013-01-12 03:06:00,
2013-01-11 19:11:00,33.4,26.6,30.28,WNW,293,3.1,3.6,76,0.00,,---,0.00,0.15,VWS V14.01,2013-01-12 03:11:00,
2013-01-11 19:16:00,33.4,26.9,30.28,West,263,2.5,2.5,77,0.00,,---,0.00,0.00,VWS V14.01,2013-01-12 03:16:00,
2013-01-11 19:21:00,33.4,27.1,30.28,WNW,293,2.7,3.4,77,0.00,,---,0.00,0.00,VWS V14.01,2013-01-12 03:21:00,
2013-01-11 19:26:00,33.3,27.1,30.28,West,281,3.6,3.6,78,0.00,,---,0.00,0.00,VWS V14.01,2013-01-12 03:26:00,
2013-01-11 19:31:00,33.1,27.1,30.28,WNW,283,3.1,3.1,78,0.00,,---,0.00,2.14,VWS V14.01,2013-01-12 03:31:00,
2013-01-11 19:36:00,33.1,27.2,30.28,West,277,4.3,4.3,79,0.00,,---,0.00,0.00,VWS V14.01,2013-01-12 03:36:00,
2013-01-11 19:41:00,33.1,27.3,30.28,WNW,285,3.4,3.4,79,0.00,,---,0.00,3.59,VWS V14.01,2013-01-12 03:41:00,
2013-01-11 19:46:00,32.9,27.2,30.28,WNW,294,3.4,3.4,79,0.00,,---,0.00,0.00,VWS V14.01,2013-01-12 03:46:00,
2013-01-11 19:51:00,32.9,27.3,30.28,WNW,291,3.6,4.0,80,0.00,,---,0.00,0.00,VWS V14.01,2013-01-12 03:51:00,
2013-01-11 19:56:00,32.7,27.2,30.28,WNW,288,3.1,4.7,80,0.00,,---,0.00,0.00,VWS V14.01,2013-01-12 03:56:00,
2013-01-11 20:01:00,32.7,27.3,30.28,WNW,285,4.5,4.5,80,0.00,,---,0.00,1.53,VWS V14.01,2013-01-12 04:01:00,
2013-01-11 20:06:00,32.7,27.4,30.28,WNW,285,2.0,3.1,80,0.00,,---,0.00,4.88,VWS V14.01,2013-01-12 04:06:00,
2013-01-11 20:11:00,32.5,27.2,30.28,WNW,297,4.9,4.9,80,0.00,,---,0.00,2.44,VWS V14.01,2013-01-12 04:11:00,
2013-01-11 20:16:00,32.5,27.2,30.28,WNW,295,2.5,2.9,80,0.00,,---,0.00,0.08,VWS V14.01,2013-01-12 04:16:00,
2013-01-11 20:21:00,32.5,27.1,30.27,WNW,293,2.2,2.2,80,0.00,,---,0.00,0.53,VWS V14.01,2013-01-12 04:21:00,
2013-01-11 20:26:00,32.5,27.0,30.27,West,267,2.2,2.2,80,0.00,,---,0.00,0.00,VWS V14.01,2013-01-12 04:26:00,
2013-01-11 20:31:00,32.5,27.0,30.27,West,280,2.9,3.1,80,0.00,,---,0.00,0.00,VWS V14.01,2013-01-12 04:31:00,
2013-01-11 20:36:00,32.5,27.0,30.27,West,277,2.9,2.9,80,0.00,,---,0.00,0.00,VWS V14.01,2013-01-12 04:36:00,
2013-01-11 20:41:00,32.5,27.0,30.27,WNW,286,3.6,3.8,80,0.00,,---,0.00,2.90,VWS V14.01,2013-01-12 04:41:00,
2013-01-11 20:46:00,32.4,26.8,30.27,WNW,289,4.3,4.3,80,0.00,,---,0.00,0.99,VWS V14.01,2013-01-12 04:46:00,
2013-01-11 20:51:00,32.4,26.9,30.27,WNW,292,3.8,4.0,80,0.00,,---,0.00,5.72,VWS V14.01,2013-01-12 04:51:00,
2013-01-11 20:56:00,32.2,26.8,30.28,WNW,297,4.0,4.0,80,0.00,,---,0.00,0.00,VWS V14.01,2013-01-12 04:56:00,
2013-01-11 21:00:00,32.2,26.9,30.28,NW,312,3.1,3.1,81,0.00,,---,0.00,0.46,VWS V14.01,2013-01-12 05:00:00,
2013-01-11 21:01:00,32.4,27.1,30.28,NW,305,2.5,2.5,81,0.00,,---,0.00,0.00,VWS V14.01,2013-01-12 05:01:00,
2013-01-11 21:02:00,32.4,27.1,30.28,NW,305,1.8,2.5,81,0.00,,---,0.00,0.00,VWS V14.01,2013-01-12 05:02:00,
2013-01-11 21:07:00,32.4,27.2,30.28,NW,307,3.6,3.6,81,0.00,,---,0.00,1.98,VWS V14.01,2013-01-12 05:07:00,
2013-01-11 21:12:00,32.2,27.1,30.28,WNW,290,2.7,2.7,81,0.00,,---,0.00,0.00,VWS V14.01,2013-01-12 05:12:00,
2013-01-11 21:17:00,32.2,27.2,30.28,WNW,303,3.4,3.6,82,0.00,,---,0.00,0.00,VWS V14.01,2013-01-12 05:17:00,
2013-01-11 21:22:00,32.0,27.2,30.28,WNW,283,3.1,3.1,82,0.00,,---,0.00,0.00,VWS V14.01,2013-01-12 05:22:00,
2013-01-11 21:27:00,32.0,27.3,30.28,WNW,293,3.1,3.1,82,0.00,,---,0.00,0.08,VWS V14.01,2013-01-12 05:27:00,
2013-01-11 21:32:00,32.0,27.4,30.28,WNW,286,2.2,2.5,83,0.00,,---,0.00,0.00,VWS V14.01,2013-01-12 05:32:00,
2013-01-11 21:37:00,32.0,27.5,30.28,West,275,2.5,3.4,83,0.00,,---,0.00,0.00,VWS V14.01,2013-01-12 05:37:00,
2013-01-11 21:42:00,32.0,27.5,30.29,West,265,3.4,3.4,83,0.00,,---,0.00,0.15,VWS V14.01,2013-01-12 05:42:00,
2013-01-11 21:47:00,31.8,27.4,30.29,WNW,282,2.5,3.1,84,0.00,,---,0.00,5.95,VWS V14.01,2013-01-12 05:47:00,
2013-01-11 21:52:00,31.8,27.5,30.29,West,281,4.5,4.5,84,0.00,,---,0.00,0.00,VWS V14.01,2013-01-12 05:52:00,
2013-01-11 21:57:00,31.6,27.4,30.28,WNW,285,3.6,4.0,84,0.00,,---,0.00,0.84,VWS V14.01,2013-01-12 05:57:00,
2013-01-11 22:02:00,31.6,27.5,30.29,West,275,4.0,4.9,84,0.00,,---,0.00,0.00,VWS V14.01,2013-01-12 06:02:00,
2013-01-11 22:07:00,31.6,27.5,30.29,West,278,3.8,3.8,85,0.00,,---,0.00,1.22,VWS V14.01,2013-01-12 06:07:00,
2013-01-11 22:12:00,31.6,27.6,30.29,WNW,293,4.5,5.1,85,0.00,,---,0.00,1.60,VWS V14.01,2013-01-12 06:12:00,
2013-01-11 22:17:00,31.6,27.6,30.29,West,276,3.4,3.4,85,0.00,,---,0.00,0.46,VWS V14.01,2013-01-12 06:17:00,
2013-01-11 22:22:00,31.5,27.5,30.29,WNW,285,3.6,4.3,85,0.00,,---,0.00,0.15,VWS V14.01,2013-01-12 06:22:00,
2013-01-11 22:27:00,31.6,27.7,30.29,NW,305,4.0,4.0,85,0.00,,---,0.00,0.00,VWS V14.01,2013-01-12 06:27:00,
2013-01-11 22:32:00,31.6,27.7,30.29,WNW,295,5.1,5.1,85,0.00,,---,0.00,0.00,VWS V14.01,2013-01-12 06:32:00,
2013-01-11 22:37:00,31.5,27.5,30.29,West,268,4.9,4.9,85,0.00,,---,0.00,3.97,VWS V14.01,2013-01-12 06:37:00,
2013-01-11 22:42:00,31.5,27.5,30.29,West,263,4.0,6.3,85,0.00,,---,0.00,0.00,VWS V14.01,2013-01-12 06:42:00,
2013-01-11 22:47:00,31.1,27.1,30.29,West,262,3.8,4.0,85,0.00,,---,0.00,0.00,VWS V14.01,2013-01-12 06:47:00,
2013-01-11 22:52:00,31.1,27.3,30.28,WNW,289,3.1,4.5,86,0.00,,---,0.00,1.76,VWS V14.01,2013-01-12 06:52:00,
2013-01-11 22:57:00,31.1,27.4,30.28,WNW,283,2.0,2.0,86,0.00,,---,0.00,1.91,VWS V14.01,2013-01-12 06:57:00,
2013-01-11 23:02:00,30.9,27.3,30.28,West,270,4.7,4.7,86,0.00,,---,0.00,0.00,VWS V14.01,2013-01-12 07:02:00,
2013-01-11 23:07:00,30.9,27.4,30.28,WNW,294,5.8,5.8,86,0.00,,---,0.00,4.12,VWS V14.01,2013-01-12 07:07:00,
2013-01-11 23:12:00,31.1,27.6,30.28,WNW,284,4.7,4.7,87,0.00,,---,0.00,0.00,VWS V14.01,2013-01-12 07:12:00,
2013-01-11 23:17:00,31.1,27.6,30.28,WNW,294,2.2,4.9,87,0.00,,---,0.00,1.22,VWS V14.01,2013-01-12 07:17:00,
2013-01-11 23:22:00,30.9,27.4,30.28,WNW,290,5.4,5.4,86,0.00,,---,0.00,2.52,VWS V14.01,2013-01-12 07:22:00,
2013-01-11 23:27:00,30.7,27.2,30.28,WNW,282,4.0,4.0,87,0.00,,---,0.00,0.00,VWS V14.01,2013-01-12 07:27:00,
2013-01-11 23:32:00,30.7,27.3,30.28,WNW,284,4.5,5.8,87,0.00,,---,0.00,0.00,VWS V14.01,2013-01-12 07:32:00,
2013-01-11 23:37:00,30.7,27.4,30.28,WNW,290,5.1,5.6,87,0.00,,---,0.00,4.27,VWS V14.01,2013-01-12 07:37:00,
2013-01-11 23:42:00,30.9,27.6,30.28,WNW,289,5.1,6.7,87,0.00,,---,0.00,2.44,VWS V14.01,2013-01-12 07:42:00,
2013-01-11 23:47:00,30.9,27.6,30.28,WNW,289,4.7,4.9,87,0.00,,---,0.00,1.14,VWS V14.01,2013-01-12 07:47:00,
2013-01-11 23:52:00,30.7,27.5,30.28,WNW,295,4.3,4.3,87,0.00,,---,0.00,2.98,VWS V14.01,2013-01-12 07:52:00,
2013-01-11 23:57:00,30.9,27.6,30.28,WNW,294,2.7,5.4,88,0.00,,---,0.00,0.00,VWS V14.01,2013-01-12 07:57:00,